Weather History for Leadville, CO

Change the Weather History Date:

Tuesday, July 15, 2014

  Actual Average Record
Temperature  
Mean Temperature 56 °F -  
Max Temperature 69 °F 71 °F 79 °F (2006)
Min Temperature 43 °F 38 °F 33 °F (1987)
Degree Days  
Heating Degree Days 9 11  
Month to date heating degree days 119 171  
Since 1 June heating degree days 573 651  
Since 1 July heating degree days 119 171  
Cooling Degree Days 0 0  
Month to date cooling degree days 0 0  
Year to date cooling degree days 0 0  
Since 1 June cooling degree days 0 0  
Growing Degree Days 6 (Base 50)    
Moisture  
Dew Point 44 °F    
Average Humidity 65    
Maximum Humidity 93    
Minimum Humidity 37    
Precipitation  
Precipitation 0.06 in 0.06 in 0.33 in (2000)
Month to date precipitation 0.90 0.75  
Year to date precipitation 9.52 5.82  
Sea Level Pressure  
Sea Level Pressure 30.19 in    
Wind  
Wind Speed 5 mph (ESE)    
Max Wind Speed 22 mph    
Max Gust Speed 34 mph    
Visibility 9 miles    
Events Rain , Thunderstorm    
T = Trace of Precipitation, MM = Missing Value Source: NWS Daily Summary

Daily Weather History Graph

Daily Weather History Graph

Search for Another Location

Airport:

Trip Planner

Search our weather history database for the weather conditions in past years. The results will help you decide how hot, cold, wet, or windy it might be!

Date:

Astronomy

Jul. 15, 2014 Rise Set
Actual Time 5:51 AM MDT 8:30 PM MDT
Civil Twilight 5:20 AM MDT 9:02 PM MDT
Nautical Twilight 4:40 AM MDT 9:41 PM MDT
Astronomical Twilight 3:56 AM MDT 10:24 PM MDT
Moon 10:42 PM MDT (7/15) 9:47 AM MDT (7/15)
Length of Visible Light 15h 42m
Length of Day
14h 39m
Waning Gibbous, 85% of the Moon is Illuminated
Jul 15
Waning Gibbous
Jul 18
Last Quarter
Jul 26
New
Aug 3
First Quarter
Aug 10
Full

Hourly Weather History & Observations

Time (MDT) Temp. Windchill Dew Point Humidity Pressure Visibility Wind Dir Wind Speed Gust Speed Precip Events Conditions
12:53 AM 48.0 °F - 46.0 °F 93% 30.04 in 10.0 mi NE 3.5 mph - N/A   Scattered Clouds
12:58 AM 48.9 °F - 46.0 °F 90% 30.58 in 10.0 mi Calm Calm - N/A   Mostly Cloudy
1:53 AM 50.0 °F - 46.0 °F 86% 30.01 in 10.0 mi North 3.5 mph - N/A   Overcast
2:01 AM 51.8 °F - 46.4 °F 82% 30.56 in 10.0 mi Calm Calm - N/A Rain Light Rain
2:17 AM 50.0 °F - 46.9 °F 89% 30.56 in 10.0 mi Calm Calm - 0.00 in Rain , Thunderstorm Light Rain
2:41 AM 48.9 °F - 46.9 °F 93% 30.55 in 10.0 mi ENE 4.6 mph - 0.00 in   Mostly Cloudy
2:53 AM 48.9 °F - 46.0 °F 90% 29.96 in 10.0 mi East 5.8 mph - 0.00 in   Scattered Clouds
3:13 AM 48.9 °F - 46.9 °F 93% 30.53 in 10.0 mi ENE 3.5 mph - N/A   Mostly Cloudy
3:53 AM 50.0 °F - 46.9 °F 89% 29.96 in 10.0 mi SW 4.6 mph - N/A   Overcast
4:41 AM 50.0 °F - 46.9 °F 89% 30.52 in 10.0 mi ESE 3.5 mph - N/A   Overcast
4:53 AM 50.0 °F - 46.0 °F 86% 29.97 in 10.0 mi SSE 3.5 mph - N/A   Overcast
5:13 AM 51.1 °F - 46.9 °F 86% 30.52 in 10.0 mi Calm Calm - N/A   Overcast
5:29 AM 48.9 °F - 46.9 °F 93% 30.52 in 10.0 mi South 4.6 mph - N/A   Overcast
5:53 AM 48.9 °F - 46.0 °F 90% 29.97 in 10.0 mi Calm Calm - N/A   Mostly Cloudy
6:00 AM 46.9 °F - 46.0 °F 97% 30.51 in 10.0 mi SE 3.5 mph - N/A   Scattered Clouds
6:26 AM 46.9 °F - 46.0 °F 97% 30.51 in 6.0 mi Calm Calm - N/A   Mostly Cloudy
6:53 AM 48.9 °F - 46.0 °F 90% 30.01 in 9.0 mi Calm Calm - N/A   Overcast
7:00 AM 48.0 °F - 46.9 °F 96% 30.51 in 1.5 mi Calm Calm - N/A   Overcast
7:10 AM 48.0 °F - 46.9 °F 96% 30.51 in 4.0 mi Calm Calm - N/A   Overcast
7:41 AM 51.1 °F - 46.0 °F 83% 30.51 in 10.0 mi Calm Calm - N/A   Scattered Clouds
7:53 AM 52.0 °F - 45.0 °F 77% 30.02 in 10.0 mi Calm Calm - N/A   Clear
8:53 AM 55.0 °F - 44.1 °F 67% 30.00 in 10.0 mi Calm Calm - N/A   Clear
9:53 AM 63.0 °F - 41.0 °F 45% 29.95 in 10.0 mi Calm Calm - N/A   Clear
11:53 AM 64.0 °F - 37.0 °F 37% 29.96 in 10.0 mi WNW 11.5 mph - N/A   Overcast
12:53 PM 66.9 °F - 41.0 °F 39% 29.93 in 10.0 mi West 12.7 mph - 0.03 in   Mostly Cloudy
1:53 PM 63.0 °F - 41.0 °F 45% 29.92 in 10.0 mi WNW 12.7 mph - 0.00 in Rain , Thunderstorm Light Rain
2:12 PM 59.0 °F - 39.9 °F 49% 30.46 in 10.0 mi North 17.3 mph 24.2 mph 0.01 in Rain Light Rain
2:53 PM 57.9 °F - 39.9 °F 51% 29.99 in 10.0 mi Variable 4.6 mph - 0.01 in Rain Light Rain
3:53 PM 57.9 °F - 39.9 °F 51% 29.96 in 10.0 mi NW 3.5 mph - 0.00 in   Scattered Clouds
4:53 PM 55.9 °F - 43.0 °F 62% 29.95 in 10.0 mi South 5.8 mph - N/A   Mostly Cloudy
5:53 PM 57.9 °F - 42.1 °F 56% 29.94 in 10.0 mi South 6.9 mph - N/A   Partly Cloudy
6:50 PM 59.0 °F - 41.0 °F 51% 30.40 in 10.0 mi SSE 8.1 mph - 0.00 in Thunderstorm Mostly Cloudy
6:53 PM 59.0 °F - 41.0 °F 51% 29.92 in 10.0 mi SSE 6.9 mph - 0.00 in Thunderstorm Scattered Clouds
7:34 PM 52.0 °F - 46.0 °F 80% 30.42 in 5.0 mi ENE 8.1 mph - 0.02 in Rain Rain
7:53 PM 52.0 °F - 45.0 °F 77% 29.97 in 10.0 mi Variable 3.5 mph - 0.02 in   Scattered Clouds
8:53 PM 48.9 °F - 45.0 °F 86% 29.96 in 10.0 mi SE 3.5 mph - N/A   Clear
9:53 PM 48.9 °F - 42.1 °F 77% 29.92 in 10.0 mi SE 6.9 mph - N/A   Partly Cloudy
10:53 PM 45.0 °F 43.5 °F 41.0 °F 86% 29.94 in 10.0 mi East 3.5 mph - N/A   Partly Cloudy
11:53 PM 45.0 °F - 43.0 °F 93% 29.93 in 10.0 mi Calm Calm - 0.00 in   Partly Cloudy